Temp
3 4 4 4 4 8 7 9 8 7 8 7 6 5 5 6 7 7 7 6 6 5 6 6 6 7 7 8 6 8 8 12 14 15 18 20 20 20 20 20 20 19 19 22
3 3 3 3 3 5 5 6 8 7 8 6 6 7 6 6 6 6 5 6 6 6 6 6 8 8 9 8 5 6 7 13 13 12 15 16 18 20 21 22 22 20 19 22
3 3 3 3 3 5 5 5 6 7 6 4 4 4 4 5 6 6 6 6 6 5 6 8 7 8 8 8 6 6 7 10 16 17 17 18 17 19 20 21 20 20 21 22
3 3 3 3 6 5 6 4 2 0 3 3 3 3 3 3 3 4 6 5 4 4 4 6 6 6 6 8 6 6 6 11 13 16 17 19 18 18 19 19 20 20 21 21
3 3 3 2 6 6 4 4 4 2 2 0 4 3 3 3 3 3 3 3 3 4 3 3 3 3 5 5 5 5 6 9 10 13 16 16 17 18 18 19 19 20 21 20
3 2 3 2 4 4 4 3 3 4 2 3 4 2 2 2 4 4 5 4 4 4 4 4 4 4 3 3 3 4 5 6 10 13 14 15 14 6 9 16 7 8 16 12
3 3 2 2 2 2 3 1 3 4 4 4 2 2 2 2 3 2 4 5 3 5 5 5 4 4 3 3 4 4 4 6 8 12 12 13 6 5 6 5 3 4 5 5
3 3 2 2 2 2 2 1 3 3 4 4 3 2 2 4 4 3 3 4 4 4 4 6 6 6 5 5 7 5 5 5 8 10 13 8 6 2 1 2 2 2 1 2
3 3 2 2 2 2 2 0 0 2 3 4 1 2 2 2 2 3 3 4 3 4 5 6 7 6 6 7 7 8 7 5 6 9 10 11 3 1 1 1 6 0 -0 0
3 3 2 2 2 2 1 0 1 2 2 3 2 2 2 2 2 2 3 1 1 4 5 6 6 7 5 6 5 3 5 5 6 8 9 3 -1 -1 0 5 2 -1 -1 -1
3 3 2 2 2 2 1 1 0 0 1 2 1 1 1 1 1 1 1 3 2 2 4 5 5 6 5 5 1 1 2 2 6 6 7 6 -1 1 2 -3 -2 -2 -3 -3
2 2 2 2 1 2 2 2 0 -1 0 1 -0 -1 -1 -1 -1 -0 1 -0 -2 1 3 3 3 5 5 3 6 0 3 -0 1 0 2 -0 -0 -2 -3 -3 -4 -4 -4 -4
2 2 2 1 1 1 1 0 -0 -1 1 1 1 1 -1 -1 -1 -1 -0 0 -1 0 -1 1 1 2 2 5 5 2 -2 -5 -2 -2 -1 -1 -1 -2 -2 -3 -5 -5 -5 -5
3 2 2 2 1 1 1 0 -0 -1 -0 1 1 -1 -1 -2 -2 -2 -2 -2 -2 -2 -0 0 1 2 -0 3 -0 0 -0 -3 -0 -1 -2 -2 -2 -2 -3 -5 -6 -6 -6 -6
5 2 2 2 1 1 -0 -1 -1 -1 -0 2 2 -1 -2 -3 -3 -2 -2 -1 -1 -1 -0 0 1 -0 -1 -3 -3 -0 -2 0 1 4 -3 -4 -2 -4 -6 -7 -7 -8 -8 -8
4 2 2 1 1 1 -0 1 -2 -1 -1 -1 1 -1 -4 -3 -3 -2 -1 -1 -1 -1 0 -0 -2 -7 -3 -1 1 -0 -4 -5 -6 -3 -6 -6 -6 -8 -8 -8 -9 -10 -9 -9
3 2 2 1 0 -0 1 1 -1 -1 -2 -1 0 0 -3 -5 -3 -2 -1 -2 -1 -1 -1 -2 -1 -4 -3 -2 0 1 -5 -6 -7 -8 -10 -9 -9 -7 -11 -11 -11 -11 -12 -11
2 2 2 0 -1 -1 -2 -3 -2 -2 -2 -3 -1 1 -1 -5 -2 -2 -3 -1 -2 -2 -1 -3 -2 -4 -4 -4 -0 -4 -5 -7 -8 -9 -10 -10 -11 -12 -12 -12 -12 -12 -12 -11
2 2 1 -1 -1 -1 -2 -4 -3 -3 -2 -1 -2 1 3 -4 -4 -4 -3 -3 -1 -2 -1 -2 -3 -1 -3 -0 -1 -6 -7 -8 -8 -9 -11 -13 -13 -12 -12 -11 -12 -12 -12 -12
2 1 1 1 -1 -1 -3 -4 -3 -3 -4 -4 -1 -4 -0 -4 -3 -3 -2 -3 -1 -1 -1 -3 -4 -2 0 -3 -3 -5 -6 -8 -12 -13 -12 -12 -12 -11 -11 -13 -13 -13 -12 -12
2 1 1 -1 -2 -3 -3 -1 -2 -3 -2 -2 -2 -3 -1 -6 -2 -1 -4 -3 -3 -2 -2 -3 -1 -1 -1 -5 -8 -9 -10 -10 -13 -12 -12 -13 -13 -13 -13 -13 -12 -12 -12 -12
2 1 0 -3 -2 -2 -1 -0 -3 -3 2 -4 -3 -4 -4 -7 -6 -3 -5 -3 -5 -3 -5 -4 -2 0 -4 -8 -10 -11 -12 -13 -14 -14 -15 -14 -14 -14 -14 -14 -13 -13 -13 -13
1 -1 -2 -2 -1 -1 -0 2 2 -0 -2 -6 -7 -6 -6 -8 -6 -6 -5 -5 -3 -5 -5 -3 -0 -2 -7 -9 -11 -12 -13 -14 -14 -15 -15 -15 -14 -14 -14 -15 -14 -13 -13 -12
0 1 2 -0 1 -1 2 3 3 -3 -3 -5 -5 -8 -6 -7 -6 -6 -5 -4 -7 -5 -5 -2 1 -2 -7 -10 -12 -12 -13 -15 -15 -14 -14 -14 -15 -14 -13 -13 -13 -13 -12 -12
-0 -1 1 1 2 -0 -2 -4 -4 -6 -5 -6 -7 -8 -6 -7 -7 -8 -6 -7 -6 -3 -1 1 1 -4 -8 -10 -12 -12 -12 -14 -15 -14 -14 -15 -14 -14 -14 -13 -13 -13 -12 -12
-0 -1 1 0 -1 0 -3 -4 -4 -7 -6 -6 -5 -7 -6 -5 -5 -7 -6 -3 -3 -0 -3 -1 -4 -7 -8 -9 -11 -12 -13 -13 -14 -14 -14 -14 -14 -14 -13 -13 -13 -13 -12 -12
-0 -0 0 2 2 2 2 -3 -4 -7 -5 -3 -5 -4 -3 -9 -7 -6 -4 -4 -1 -1 -2 -5 -6 -7 -8 -9 -11 -12 -13 -14 -14 -15 -15 -14 -14 -14 -14 -13 -12 -13 -12 -13
Height
816 808 799 790 780 772 771 771 774 775 763 768 779 785 788 786 781 776 775 776 775 774 767 761 757 755 754 751 753 740 738 720 713 715 705 701 704 707 709 718 724 728 731 717
819 812 804 795 786 779 779 784 782 780 770 780 786 787 788 788 785 784 782 778 776 776 769 767 758 753 750 752 754 753 747 712 717 732 724 714 707 701 700 703 705 721 730 718
824 817 809 798 790 783 782 787 788 791 791 801 799 802 800 792 790 786 786 783 775 774 766 760 765 759 758 757 760 755 751 726 698 694 692 694 710 702 700 703 714 714 713 711
829 821 814 804 795 787 788 795 813 818 810 808 808 806 807 802 801 796 789 786 790 789 783 768 765 763 766 754 761 759 753 727 714 702 697 690 699 705 705 707 706 711 709 712
833 826 820 813 803 796 796 805 808 816 818 822 807 809 811 809 805 805 799 801 796 791 792 792 787 787 778 770 768 763 760 738 731 713 703 702 702 702 705 707 708 709 709 712
838 831 825 819 811 804 808 815 816 813 821 816 811 820 817 812 806 800 798 797 794 791 787 785 781 782 781 783 784 773 770 763 738 716 711 711 720 770 751 719 765 766 727 748
842 836 830 826 820 817 818 820 818 813 814 810 819 820 819 816 809 809 799 796 799 787 791 784 782 782 783 780 777 782 781 767 751 723 723 720 777 780 772 777 791 790 785 784
845 840 834 830 826 824 823 823 821 819 815 816 816 818 818 808 804 806 803 797 797 793 786 775 772 771 776 779 773 778 778 769 754 737 716 762 777 797 803 797 801 804 803 797
848 843 838 834 831 827 826 825 825 824 819 819 823 820 819 815 811 803 803 799 797 791 780 770 766 773 778 766 767 767 771 772 766 749 735 724 796 809 808 806 777 813 811 807
850 845 841 836 833 830 828 827 826 826 824 823 825 819 822 822 818 812 805 808 800 791 781 778 779 772 783 778 783 790 774 776 768 757 747 795 816 812 806 782 801 819 819 815
851 846 842 837 835 832 831 829 827 827 826 825 826 826 824 823 823 817 813 806 807 800 792 786 790 782 786 784 808 808 801 801 773 769 755 766 815 805 799 827 824 823 820 819
851 847 842 838 836 833 830 829 827 826 826 826 827 827 826 827 827 826 822 824 825 818 806 804 800 789 789 796 771 812 797 815 805 810 798 813 815 819 827 827 827 824 823 819
850 847 844 839 835 833 831 830 829 827 827 825 826 825 826 824 824 825 825 821 824 820 823 816 811 804 807 785 786 803 821 831 818 816 814 813 814 819 821 824 827 826 823 819
847 845 842 838 834 831 830 830 829 829 829 823 821 824 824 823 823 824 825 825 824 825 821 818 812 807 817 800 813 810 811 822 809 809 811 813 814 816 820 823 824 823 822 820
843 842 840 836 833 829 829 829 828 828 830 823 819 823 824 823 823 822 822 822 823 822 819 817 811 817 819 824 825 808 810 802 799 783 811 815 812 817 822 823 823 823 820 815
841 839 837 833 830 827 828 828 828 828 828 827 819 823 824 824 823 822 822 821 822 820 815 817 823 832 824 814 798 796 805 810 812 808 817 820 821 823 823 823 822 819 817 813
839 837 835 831 828 828 828 826 827 826 826 826 819 814 823 823 823 823 822 823 820 819 818 819 818 826 823 815 796 786 800 806 812 817 821 818 819 817 822 822 819 817 814 810
836 834 831 828 827 827 827 825 826 826 827 828 823 814 820 825 821 820 824 819 820 819 816 821 816 826 825 813 785 796 801 806 809 812 815 814 817 818 817 817 815 810 807 803
833 831 828 828 826 825 825 824 823 824 828 821 823 810 801 826 825 825 824 823 815 820 815 814 819 806 805 777 778 792 799 804 806 811 815 817 817 815 814 812 810 808 803 799
830 828 827 824 824 824 825 822 824 824 824 823 816 820 812 824 821 820 820 821 813 811 811 820 816 789 772 775 777 782 791 798 806 814 815 814 813 811 810 810 808 805 800 795
829 827 825 822 822 822 823 820 819 821 816 814 812 814 810 826 816 814 825 820 821 813 811 814 792 777 763 774 781 785 790 795 801 803 806 809 810 811 809 806 802 799 795 791
826 828 824 823 822 822 820 812 819 816 795 811 810 815 817 825 826 819 827 820 826 811 822 817 790 757 766 775 781 786 791 794 798 801 802 804 806 806 806 802 798 795 791 787
823 824 824 823 820 817 811 795 793 800 798 812 818 819 821 827 826 826 824 822 814 821 817 791 761 760 769 775 781 786 791 794 795 798 800 801 802 802 801 800 797 794 789 785
820 817 811 813 803 803 784 777 775 795 796 801 805 817 817 822 821 823 820 816 826 811 805 774 748 754 766 775 780 784 787 791 794 795 796 797 798 798 798 796 794 791 787 783
814 815 801 793 778 782 785 790 793 799 803 807 812 817 818 823 822 827 822 823 810 790 762 747 746 755 763 771 777 780 783 786 790 792 794 794 795 795 794 793 791 789 786 782
800 799 786 783 787 779 787 788 789 797 800 803 804 812 813 809 811 821 808 790 773 750 757 750 754 759 763 768 774 778 780 783 787 789 791 792 793 793 791 790 789 788 786 783
782 776 771 766 766 764 767 777 781 791 792 788 797 797 785 813 807 800 785 773 751 749 751 755 757 758 762 768 772 775 778 782 785 787 789 790 792 791 790 788 787 787 785 783
Wind_Speed
36 37 39 40 38 23 14 6 4 27 15 6 3 6 5 7 10 12 7 10 8 9 10 7 7 8 7 12 5 5 4 2 10 20 5 11 17 19 20 10 13 2 2 1
36 37 39 39 36 23 5 3 3 18 16 5 6 5 11 4 12 14 9 12 9 12 6 3 8 8 8 12 10 7 5 4 7 6 6 6 15 21 22 19 13 12 5 3
35 36 38 40 35 19 5 2 2 5 7 6 6 6 9 10 5 8 10 10 8 12 5 6 3 9 6 5 11 9 5 3 6 9 14 10 17 20 18 21 14 12 14 7
36 34 36 40 34 23 5 4 3 1 4 7 8 4 8 12 9 8 12 5 14 10 6 10 8 10 11 3 12 7 5 2 6 6 7 13 17 18 18 19 20 18 13 14
34 32 33 36 37 17 11 3 1 2 3 4 6 10 9 11 7 3 8 9 14 7 4 5 10 11 4 5 10 8 9 4 5 3 5 3 11 14 16 16 17 18 15 9
32 31 29 30 35 20 9 6 2 2 4 3 1 4 7 7 11 4 5 12 10 4 10 15 14 11 12 11 7 7 7 6 4 2 2 6 2 9 8 5 9 6 9 7
29 30 25 25 28 20 10 5 2 2 3 4 3 5 6 9 10 8 11 12 6 5 17 12 3 3 6 6 7 4 5 6 2 2 2 5 6 9 14 14 11 12 9 12
27 29 24 20 20 20 13 9 4 2 2 2 1 8 6 6 8 5 7 11 9 12 10 2 4 4 4 4 7 3 5 3 3 2 6 7 4 9 7 5 6 13 13 14
25 26 25 19 17 17 8 11 7 3 1 3 1 4 6 5 9 5 3 10 12 8 2 2 4 4 4 3 1 5 2 1 3 2 3 1 3 13 7 3 4 12 13 14
24 24 25 19 15 16 8 5 11 2 1 2 2 2 3 5 4 4 4 9 8 11 5 4 4 3 2 3 5 7 5 4 3 4 1 3 6 14 4 4 3 12 13 13
21 23 24 18 14 13 9 4 9 3 1 1 3 1 1 1 2 4 6 4 3 5 5 4 3 3 3 1 2 2 3 3 2 3 2 2 9 1 4 3 6 11 12 13
19 21 21 20 12 12 8 3 9 3 2 2 1 0 2 2 1 3 3 2 1 3 2 2 2 1 2 2 1 3 2 1 2 2 3 2 5 4 6 5 9 12 14 14
18 19 21 21 12 11 6 4 8 2 2 2 3 3 5 3 1 2 2 1 1 1 2 2 1 2 2 2 1 2 4 4 3 3 4 3 4 10 6 8 8 11 13 15
17 18 19 20 13 11 5 2 5 2 2 2 2 2 3 4 3 3 6 3 1 2 1 2 2 2 1 2 2 3 3 5 3 5 3 1 6 9 6 11 11 12 15 15
18 17 18 18 12 10 6 5 3 6 1 2 1 1 2 1 3 2 4 6 3 2 2 2 1 0 2 1 2 4 7 5 4 2 4 2 3 4 12 11 11 13 15 17
18 18 18 21 11 5 3 2 3 2 1 1 2 2 1 3 2 1 1 2 3 2 2 1 1 1 2 3 3 2 6 4 3 2 2 5 10 11 11 8 13 17 16 18
17 19 21 22 6 6 3 1 2 1 1 1 3 2 2 3 1 0 1 2 2 2 1 3 1 3 2 2 4 6 11 9 6 2 1 6 4 2 8 14 16 17 18 19
16 18 23 8 3 2 2 3 1 1 1 0 2 1 2 3 1 1 2 2 2 2 0 2 3 2 2 5 9 4 8 7 7 8 9 7 5 8 8 9 13 12 11 14
15 20 15 4 3 2 1 4 6 5 3 2 2 2 0 1 1 1 2 1 3 2 2 2 2 4 7 8 9 12 11 8 2 4 4 4 8 9 9 9 9 10 12 13
17 11 1 2 3 3 5 1 1 1 1 1 3 1 2 2 1 1 2 0 1 2 1 2 4 5 12 5 4 9 10 9 8 4 5 6 6 8 7 8 11 12 13 18
2 3 2 3 3 0 1 2 2 1 3 4 1 2 2 1 1 1 2 1 1 2 2 3 3 5 4 9 8 6 8 10 9 6 2 3 5 7 8 8 12 14 16 16
4 8 11 4 0 0 2 2 1 4 2 3 3 3 1 2 1 2 2 1 1 4 1 3 4 4 4 8 7 7 8 9 7 9 7 8 9 11 11 12 14 15 17 21
6 1 1 0 2 3 5 5 4 3 5 5 3 2 2 2 1 2 2 3 4 1 3 4 5 1 4 6 7 6 8 9 5 6 8 8 11 11 12 13 17 17 16 17
2 4 5 5 4 6 6 3 2 4 2 8 5 4 2 1 3 2 4 2 1 3 4 7 3 6 7 7 5 6 7 7 7 8 7 8 9 11 13 12 13 14 13 15
4 4 6 8 6 1 1 2 4 3 6 3 4 4 2 2 3 2 0 3 5 6 5 3 2 4 10 10 8 7 6 6 6 8 7 9 9 9 11 10 10 10 11 11
4 6 5 3 1 3 2 4 3 5 6 3 2 3 3 4 3 4 9 4 8 3 3 3 2 5 7 8 7 7 8 9 8 8 8 7 8 9 8 10 7 7 8 8
6 6 5 6 5 6 1 4 4 12 6 4 3 6 6 3 3 5 6 6 2 1 2 1 2 6 7 6 9 9 9 9 8 9 8 8 8 8 8 7 6 7 6 7
Wind_Direction
6 4 3 3 1 7 29 17 45 347 5 53 33 39 8 351 7 15 29 15 356 353 341 348 7 21 3 10 347 2 345 283 166 190 109 227 206 209 198 199 191 180 309 83
7 6 5 5 5 10 6 53 20 8 27 58 46 57 24 19 10 24 12 10 360 340 340 351 31 5 12 10 13 351 328 201 133 158 260 263 221 208 210 220 215 201 192 126
9 8 6 7 7 15 64 72 43 16 43 38 25 5 8 6 25 25 1 10 3 356 360 352 318 3 357 22 11 346 256 288 253 194 205 180 201 210 216 215 221 216 209 164
9 11 9 10 13 19 62 18 70 18 9 22 29 29 354 4 8 2 10 6 9 0 332 341 0 8 336 36 11 1 21 313 326 339 337 191 195 208 213 223 224 226 216 218
10 11 13 14 20 31 61 70 57 102 70 313 7 12 10 354 352 328 358 360 342 347 326 327 311 333 345 23 334 10 352 323 343 314 23 222 210 208 220 220 233 237 239 227
11 11 15 15 22 36 55 36 65 301 18 0 309 20 340 329 341 299 338 341 327 336 348 318 300 292 284 287 304 346 356 339 344 202 42 112 159 15 325 279 51 355 251 357
14 11 14 16 21 37 52 30 325 321 47 32 33 354 342 322 324 290 306 339 339 330 329 293 220 239 250 282 292 254 297 328 311 336 191 206 88 37 45 93 53 22 1 353
11 11 12 14 14 23 44 25 3 11 94 331 163 346 345 321 335 331 298 330 323 319 302 268 190 175 177 134 46 161 247 308 334 293 210 112 54 23 357 357 52 16 359 350
8 8 7 11 9 14 27 29 15 358 292 51 123 342 338 342 344 331 284 329 334 338 284 318 30 37 330 15 314 36 139 234 298 328 300 200 3 340 325 276 185 11 359 350
5 5 6 7 4 4 16 18 19 353 334 148 242 44 355 329 320 298 308 341 335 346 5 53 24 59 309 358 7 342 350 358 346 334 60 101 345 331 327 204 37 343 342 338
359 2 3 4 1 356 7 332 3 6 294 206 207 317 10 314 349 350 344 302 19 352 40 9 32 338 42 275 76 23 341 316 16 280 264 138 2 217 330 17 326 332 330 327
353 357 356 1 354 356 2 323 343 349 242 10 193 198 241 223 186 312 347 4 269 358 322 30 311 314 310 309 146 181 205 62 289 317 31 17 352 264 129 19 334 331 322 321
346 349 352 355 345 351 357 335 342 353 292 203 209 209 190 155 57 274 292 184 292 234 334 339 333 291 312 295 51 302 154 173 219 310 169 294 317 148 173 1 335 321 316 316
341 340 344 344 335 332 331 343 3 25 331 288 136 134 165 196 293 256 234 287 246 273 282 270 268 272 30 342 3 274 38 154 222 266 248 175 139 176 357 336 330 324 319 312
336 330 337 333 332 309 312 285 202 34 344 296 312 243 202 243 336 258 213 223 221 224 221 226 242 189 222 93 278 243 181 176 203 2 108 317 292 2 333 321 320 318 315 314
328 325 328 323 312 284 327 265 234 291 325 270 280 76 21 2 4 110 148 218 215 238 272 215 214 4 249 230 243 152 176 188 152 159 122 266 284 296 293 309 310 309 306 307
320 321 317 323 274 249 240 276 152 261 89 233 278 227 123 348 332 56 247 232 218 271 170 219 203 193 253 254 242 172 186 190 189 203 33 278 233 251 323 303 295 295 289 289
315 318 318 309 219 229 248 254 232 138 145 186 271 224 197 15 163 225 332 242 214 201 205 187 210 146 225 252 232 168 176 189 223 225 207 246 311 304 290 292 302 306 304 305
313 316 311 257 236 234 168 287 301 212 216 231 207 254 69 359 93 277 191 285 231 84 245 219 192 194 225 229 193 182 179 186 215 189 201 281 276 285 293 303 305 302 304 307
315 307 283 256 200 277 300 351 187 187 266 240 240 97 167 298 164 143 263 226 308 255 117 121 230 254 243 198 175 170 173 170 137 149 245 232 244 259 281 282 284 284 291 302
279 289 253 269 291 351 243 259 230 144 231 195 181 210 165 89 223 94 32 315 297 254 131 248 244 260 218 167 154 140 142 161 183 204 291 264 261 274 282 286 296 304 305 306
250 280 288 319 27 106 255 230 184 215 255 168 181 147 99 114 267 187 151 242 211 249 81 248 252 242 132 162 161 159 161 167 180 205 224 248 261 269 280 292 299 302 303 306
255 241 291 296 176 241 215 214 199 228 174 169 165 131 130 137 158 101 184 211 226 359 226 239 240 96 160 158 145 145 163 181 182 202 228 245 264 281 281 279 292 296 301 314
211 213 234 206 202 240 203 209 29 42 90 146 134 117 141 121 146 127 211 136 270 244 238 238 234 201 169 160 149 139 180 186 205 220 227 242 258 274 288 293 305 307 310 320
212 184 231 217 240 289 71 96 132 111 126 126 104 89 161 134 161 214 157 196 240 227 237 238 254 151 155 167 175 182 172 173 199 217 221 238 251 267 290 300 311 314 322 331
207 219 242 212 284 241 194 187 169 158 145 114 85 126 160 209 191 184 216 220 224 220 221 252 140 163 164 163 169 185 185 188 200 214 227 250 260 266 281 300 308 322 329 338
203 228 229 260 275 262 266 162 155 155 151 189 157 192 207 99 192 230 205 221 240 281 262 239 211 175 164 154 166 170 174 184 200 214 225 244 264 273 281 286 305 313 312 330